Weather History for MMTM - December, 2012

Change the Weather History Date:

Monday, December 10, 2012

  Actual Average Record
Temperature  
Mean Temperature 73 °F -  
Max Temperature 84 °F 72 °F 84 °F (2007)
Min Temperature 61 °F 59 °F 51 °F (2005)
Cooling Degree Days 8    
Growing Degree Days 23 (Base 50)    
Moisture  
Dew Point 61 °F    
Average Humidity 72    
Maximum Humidity 98    
Minimum Humidity 32    
Precipitation  
Precipitation 0.00 in - - ()
Sea Level Pressure  
Sea Level Pressure 29.91 in    
Wind  
Wind Speed 11 mph ()    
Max Wind Speed 34 mph    
Max Gust Speed 46 mph    
Visibility 4.3 miles    
Events Fog    
Averages and records for this station are not official NWS values.
T = Trace of Precipitation, MM = Missing Value Source: Averaged Metar Reports

Daily Weather History Graph

Daily Weather History Graph

Search for Another Location

Airport or City:

Trip Planner

Search our weather history database for the weather conditions in past years. The results will help you decide how hot, cold, wet, or windy it might be!

Date:

Astronomy

Dec. 10, 2012 Rise Set
Actual Time 7:00 AM CST 5:48 PM CST
Civil Twilight 6:36 AM CST 6:12 PM CST
Nautical Twilight 6:08 AM CST 6:40 PM CST
Astronomical Twilight 5:40 AM CST 7:08 PM CST
Moon 3:58 AM CST (12/10) 3:28 PM CST (12/10)
Length of Visible Light 11h 36m
Length of Day
10h 47m
Waning Crescent, 10% of the Moon is Illuminated
Dec 10
Waning Crescent
Dec 13
New
Dec 19
First Quarter
Dec 28
Full
Jan 4
Last Quarter

Hourly Weather History & Observations

Time (CST) Temp. Heat Index Dew Point Humidity Pressure Visibility Wind Dir Wind Speed Gust Speed Precip Events Conditions
2:50 AM 72 °F - 71 °F 96% 29.85 in 4 mi NE 2.2 mph - -   Scattered Clouds
5:41 AM 73.4 °F - 71.6 °F 94% 29.78 in 3.0 mi SSW 6.9 mph - N/A   Mostly Cloudy
5:45 AM 73 °F - 72 °F 98% 29.85 in 4 mi SW 4.5 mph - -   Haze
6:44 AM 73.4 °F - 71.6 °F 94% 29.82 in 3.0 mi South 9.2 mph - N/A   Overcast
7:42 AM 71.6 °F - 69.8 °F 94% 29.85 in 1.0 mi SSW 8.1 mph - N/A   Mostly Cloudy
8:45 AM 73 °F - 72 °F 98% 29.91 in 0 mi SW 4.5 mph - - Fog Heavy Fog
8:53 AM 71.6 °F - 69.8 °F 94% 29.88 in 1.0 mi WSW 9.2 mph - N/A   Mostly Cloudy
9:50 AM 73.4 °F - 69.8 °F 88% 29.88 in 1.5 mi West 9.2 mph - N/A   Mostly Cloudy
10:46 AM 75.2 °F - 69.8 °F 83% 29.87 in 2.0 mi West 6.9 mph - N/A   Haze
11:40 AM 80 °F - 73 °F 74% 29.89 in 11 mi SSW 4.5 mph - -   Haze
11:50 AM 78.8 °F - 69.8 °F 74% 29.83 in 2.0 mi South 3.5 mph - N/A   Haze
12:22 PM 80.6 °F 83.9 °F 69.8 °F 70% 29.83 in 3.0 mi NW 5.8 mph - N/A   Haze
12:43 PM 80.6 °F 83.9 °F 69.8 °F 70% 29.84 in 3.0 mi NW 12.7 mph - N/A   Haze
1:49 PM 80.6 °F 84.6 °F 71.6 °F 74% 29.83 in 3.0 mi North 23.0 mph - N/A   Haze
2:05 PM 78.8 °F - 68.0 °F 69% 29.84 in 1.5 mi NNE 34.5 mph 46.0 mph N/A   Haze
2:40 PM 72 °F - 65 °F 74% 29.89 in 11 mi NNE 17.9 mph - -   Haze
2:47 PM 69.8 °F - 62.6 °F 78% 29.86 in 3.0 mi NNE 23.0 mph 34.5 mph N/A   Haze
3:52 PM 66.2 °F - 57.2 °F 73% 29.86 in 3.0 mi NNE 34.5 mph 46.0 mph N/A   Haze
4:45 PM 66.2 °F - 53.6 °F 64% 29.88 in 3.0 mi North 23.0 mph 34.5 mph N/A   Haze
5:44 PM 64.4 °F - 50.0 °F 59% 29.89 in 4.0 mi North 28.8 mph 40.3 mph N/A   Mostly Cloudy
5:45 PM 64 °F - 50 °F 50% 29.96 in 12 mi NNE 17.9 mph - -   Partly Cloudy
6:42 PM 64.4 °F - 50.0 °F 59% 29.97 in 4.0 mi North 28.8 mph 40.3 mph N/A   Mostly Cloudy
7:43 PM 62.6 °F - 46.4 °F 55% 30.01 in 7.0 mi North 23.0 mph 34.5 mph N/A   Mostly Cloudy
8:45 PM 62 °F - 43 °F 39% 30.06 in 6 mi NNE 15.7 mph - -   Overcast
8:46 PM 62.6 °F - 44.6 °F 52% 30.03 in 6.0 mi North 28.8 mph 40.3 mph N/A   Mostly Cloudy
9:45 PM 62.6 °F - 44.6 °F 52% 30.05 in 6.0 mi North 28.8 mph 40.3 mph N/A   Mostly Cloudy
10:40 PM 62.6 °F - 41.0 °F 45% 30.06 in 6.0 mi North 28.8 mph 40.3 mph N/A   Mostly Cloudy
11:40 PM 61 °F - 39 °F 32% 30.11 in 6 mi North 8.9 mph - -   Mostly Cloudy